Weather History for KSDF - September, 2013

Change the Weather History Date:

Friday, September 13, 2013

  Actual Average Record
Temperature  
Mean Temperature 66 °F 72 °F  
Max Temperature 73 °F 83 °F 97 °F (1939)
Min Temperature 58 °F 62 °F 42 °F (1975)
Degree Days  
Heating Degree Days 0 0  
Month to date heating degree days 0 0  
Since 1 July heating degree days 0 0  
Cooling Degree Days 1 8  
Month to date cooling degree days 162 124  
Year to date cooling degree days 1502 1481  
Growing Degree Days 16 (Base 50)    
Moisture  
Dew Point 49 °F    
Average Humidity 60    
Maximum Humidity 84    
Minimum Humidity 35    
Precipitation  
Precipitation 0.00 in 0.11 in 3.85 in (1979)
Month to date precipitation 0.80 1.27  
Year to date precipitation 32.61 32.49  
Snow  
Snow 0.00 in 0.00 in - ()
Month to date snowfall 0.0 0.0  
Since 1 July snowfall 0.0 0.0  
Since 1 September snowfall 0.0 0.0  
Snow Depth 0.00 in    
Sea Level Pressure  
Sea Level Pressure 30.03 in    
Wind  
Wind Speed 11 mph (North)    
Max Wind Speed 23 mph    
Max Gust Speed 28 mph    
Visibility 10 miles    
Events      
T = Trace of Precipitation, MM = Missing Value Source: NWS Daily Summary

Daily Weather History Graph

Daily Weather History Graph

Search for Another Location

Airport or City:

Trip Planner

Search our weather history database for the weather conditions in past years. The results will help you decide how hot, cold, wet, or windy it might be!

Date:

Astronomy

Sep. 13, 2013 Rise Set
Actual Time 7:23 AM EDT 7:53 PM EDT
Civil Twilight 6:56 AM EDT 8:20 PM EDT
Nautical Twilight 6:25 AM EDT 8:51 PM EDT
Astronomical Twilight 5:53 AM EDT 9:23 PM EDT
Moon 3:39 PM EDT (9/13) 12:55 AM EDT (9/13)
Length of Visible Light 13h 23m
Length of Day
12h 30m
First Quarter, 61% of the Moon is Illuminated
Sep 13
First Quarter
Sep 19
Full
Sep 26
Last Quarter
Oct 4
New
Oct 11
First Quarter

Hourly Weather History & Observations

Time (EDT) Temp. Dew Point Humidity Pressure Visibility Wind Dir Wind Speed Gust Speed Precip Events Conditions
12:56 AM 71.1 °F 61.0 °F 70% 29.94 in 10.0 mi NNW 8.1 mph - N/A   Clear
1:56 AM 70.0 °F 55.0 °F 59% 29.95 in 10.0 mi North 12.7 mph 20.7 mph N/A   Clear
2:56 AM 68.0 °F 55.0 °F 63% 29.96 in 10.0 mi North 9.2 mph - N/A   Clear
3:56 AM 66.0 °F 55.0 °F 68% 29.97 in 10.0 mi North 9.2 mph - N/A   Clear
4:56 AM 64.0 °F 55.0 °F 73% 29.98 in 10.0 mi North 9.2 mph - N/A   Clear
5:56 AM 62.1 °F 55.0 °F 78% 30.00 in 10.0 mi North 9.2 mph - N/A   Clear
6:56 AM 61.0 °F 55.0 °F 81% 30.02 in 10.0 mi North 10.4 mph - N/A   Partly Cloudy
7:56 AM 61.0 °F 55.0 °F 81% 30.04 in 10.0 mi North 9.2 mph - N/A   Partly Cloudy
8:56 AM 63.0 °F 55.0 °F 75% 30.05 in 10.0 mi NNE 6.9 mph - N/A   Partly Cloudy
9:56 AM 66.0 °F 52.0 °F 60% 30.05 in 10.0 mi NE 9.2 mph 18.4 mph N/A   Partly Cloudy
10:56 AM 66.0 °F 48.9 °F 54% 30.07 in 10.0 mi NNE 12.7 mph - N/A   Scattered Clouds
11:56 AM 69.1 °F 48.9 °F 49% 30.06 in 10.0 mi North 18.4 mph 23.0 mph N/A   Scattered Clouds
12:56 PM 71.1 °F 46.9 °F 42% 30.05 in 10.0 mi NNE 17.3 mph 23.0 mph N/A   Scattered Clouds
1:56 PM 72.0 °F 45.0 °F 38% 30.04 in 10.0 mi NNW 17.3 mph 25.3 mph N/A   Partly Cloudy
2:56 PM 72.0 °F 44.1 °F 37% 30.03 in 10.0 mi NNW 18.4 mph 26.5 mph N/A   Scattered Clouds
3:56 PM 71.1 °F 43.0 °F 36% 30.02 in 10.0 mi North 18.4 mph 25.3 mph N/A   Partly Cloudy
4:56 PM 71.1 °F 44.1 °F 38% 30.02 in 10.0 mi NNW 17.3 mph 23.0 mph N/A   Scattered Clouds
5:56 PM 71.1 °F 44.1 °F 38% 30.02 in 10.0 mi NNE 15.0 mph 19.6 mph N/A   Scattered Clouds
6:56 PM 69.1 °F 43.0 °F 39% 30.03 in 10.0 mi NNE 15.0 mph 19.6 mph N/A   Scattered Clouds
7:56 PM 66.0 °F 43.0 °F 43% 30.03 in 10.0 mi North 9.2 mph - N/A   Partly Cloudy
8:56 PM 64.0 °F 44.1 °F 48% 30.05 in 10.0 mi NNE 5.8 mph - N/A   Partly Cloudy
9:56 PM 62.1 °F 45.0 °F 53% 30.07 in 10.0 mi NE 5.8 mph - N/A   Partly Cloudy
10:56 PM 60.1 °F 45.0 °F 57% 30.08 in 10.0 mi NNE 3.5 mph - N/A   Partly Cloudy
11:56 PM 59.0 °F 46.0 °F 62% 30.07 in 10.0 mi East 3.5 mph - N/A   Scattered Clouds